x

9415102 - Martinez-amorco Ca (mzxc1) Weather Station

4:54am - Wed 1st Jul 2015 All times are PDT. -7 hours from GMT.

  • Wind
    15mph, 17mph gusts
  • Sea Temp 69°f
  • Air Temp 64°f
  • Sea Pressure 1008.4mb
  • 9415102 - Martinez-amorco Ca
  • 9415102 - Martinez-amorco Ca

More Historic Weather Station data

Upgrade to MSW Pro to gain access to the past 30 days of data for over 8000 Wavebouys and Weather Stations around the globe.

Join Pro

Comparision Forecast

View Surf forecast
   
Wed 07/01 4:54am 15 17 mph 1008.4mb 69f 64f
4:48am 14 15 mph 1008.4mb 69f 64f
4:42am 11 20 mph 1008.6mb 69f 64f
4:36am 15 21 mph 1008.6mb 69f 64f
4:30am 14 21 mph 1008.6mb 69f 64f
4:24am 16 20 mph 1008.6mb 69f 64f
4:18am 15 21 mph 1008.5mb 69f 64f
4:12am 14 22 mph 1008.4mb 69f 64f
4:06am 17 22 mph 1008.5mb 69f 63f
4:00am 17 22 mph 1008.5mb 69f 64f
3:54am 17 22 mph 1008.6mb 69f 64f
3:48am 20 26 mph 1008.4mb 69f 64f
3:42am 22 28 mph 1008.3mb 69f 64f
3:36am 17 23 mph 1008.5mb 69f 64f
3:30am 17 25 mph 1008.4mb 69f 64f
3:24am 17 22 mph 1008.5mb 69f 64f
3:18am 16 23 mph 1008.7mb 69f 63f
3:12am 16 21 mph 1008.6mb 69f 62f
3:06am 15 18 mph 1008.7mb 69f 62f
3:00am 17 21 mph 1008.8mb 69f 62f
2:54am 17 21 mph 1008.9mb 69f 62f
2:48am 15 21 mph 1008.9mb 69f 62f
2:42am 16 18 mph 1008.7mb 69f 62f
2:36am 18 22 mph 1008.7mb 69f 62f
2:30am 18 21 mph 1008.6mb 69f 63f
2:24am 17 20 mph 1008.7mb 69f 63f
2:18am 16 20 mph 1008.7mb 69f 63f
2:12am 16 21 mph 1008.7mb 69f 63f
2:06am 16 20 mph 1008.7mb 69f 64f
2:00am 16 18 mph 1008.8mb 69f 64f
1:54am 16 21 mph 1008.9mb 69f 64f
1:48am 16 20 mph 1008.8mb 69f 64f
1:42am 17 20 mph 1008.7mb 69f 65f
1:36am 16 18 mph 1008.8mb 69f 65f
1:30am 15 16 mph 1008.8mb 69f 66f
1:24am 13 14 mph 1009mb 69f 66f
1:18am 13 15 mph 1009.1mb 69f 67f
1:12am 13 14 mph 1009.1mb 69f 67f
1:06am 13 14 mph 1009.2mb 69f 68f
1:00am 13 15 mph 1009.1mb 69f 68f
12:54am 13 15 mph 1009mb 69f 69f
12:48am 11 13 mph 1009mb 69f 69f
12:42am 10 13 mph 1009mb 69f 69f
12:36am 10 13 mph 1009.1mb 69f 70f
12:30am 11 13 mph 1009.1mb 69f 70f
12:24am 11 13 mph 1009.1mb 69f 71f
12:18am 9 10 mph 1009.1mb 69f 73f
12:12am 8 9 mph 1009.1mb 69f 73f
12:06am 7 8 mph 1009.2mb 69f 73f
12:00am 6 8 mph 1009.2mb 69f 74f
Tue 06/30 11:54pm 8 9 mph 1009.1mb 69f 74f
11:48pm  -  mph - 69f 73f
11:42pm  -  mph - 69f 73f
11:36pm  -  mph - 69f 74f
11:30pm 8 9 mph 1009.1mb 69f 75f
11:24pm 9 10 mph 1009.1mb 70f 75f
11:18pm 9 10 mph 1009.1mb 70f 76f
11:12pm 9 10 mph 1009.1mb 70f 76f
11:06pm 8
mph
1009.2mb 70f 77f
11:00pm 8 9 mph 1009.2mb 70f 78f
10:54pm 8 9 mph 1009.2mb 70f 78f
10:48pm 7
mph
1009.1mb 70f 78f
10:42pm 5 6 mph 1009.1mb 70f 78f
10:36pm 3 6 mph 1009.1mb 71f 78f
10:30pm 6 8 mph 1009mb 71f 78f
10:24pm 8 9 mph 1008.8mb 71f 78f
10:18pm 8 9 mph 1008.9mb 71f 78f
10:12pm 7 8 mph 1009mb 71f 77f
10:06pm 8 9 mph 1009.1mb 71f 78f
10:00pm 8 10 mph 1009mb 71f 78f
9:54pm 7 9 mph 1008.9mb 70f 77f
9:48pm 9 10 mph 1008.9mb 70f 77f
9:42pm 8 10 mph 1008.8mb 70f 75f
9:36pm 10 11 mph 1008.6mb 71f 76f
9:30pm 10 11 mph 1008.4mb 71f 77f
9:24pm 10 11 mph 1008.4mb 70f 77f
9:18pm 10 11 mph 1008.4mb 71f 78f
9:12pm 10 11 mph 1008.3mb 71f 80f
9:06pm 9 11 mph 1008.4mb 71f 79f
9:00pm 9 10 mph 1008.4mb 71f 80f
8:54pm 9 13 mph 1008.3mb 71f 79f
8:48pm 13 14 mph 1008.3mb 72f 80f
8:42pm 13 14 mph 1008.3mb 72f 80f
8:36pm 11 14 mph 1008.3mb 72f 82f
8:30pm 13 14 mph 1008.4mb 71f 82f
8:24pm 13
mph
1008.3mb 71f 82f
8:18pm 13 14 mph 1008.3mb 72f 81f
8:12pm 13
mph
1008.3mb 72f 81f
8:06pm 11 14 mph 1008.2mb 72f 81f
8:00pm 13 14 mph 1008.2mb 72f 83f
7:54pm 14 15 mph 1008.2mb 72f 83f
7:48pm 14 15 mph 1008.2mb 72f 83f
7:42pm 14 15 mph 1008.2mb 72f 84f
7:36pm 14 15 mph 1008.1mb 72f 84f
7:30pm 14 15 mph 1008.1mb 72f 84f
7:24pm 14 15 mph 1008.1mb 72f 85f
7:18pm 14 16 mph 1008.1mb 72f 85f
7:12pm 15 16 mph 1008mb 72f 85f
7:06pm 15 16 mph 1007.8mb 72f 86f
7:00pm 16 17 mph 1007.6mb 71f 86f
6:54pm 17 18 mph 1007.5mb 71f 86f
6:48pm 17 18 mph 1007.4mb 71f 87f
6:42pm 18 20 mph 1007.3mb 71f 87f
6:36pm 16 20 mph 1007.3mb 71f 88f
6:30pm 17 18 mph 1007.2mb 71f 88f
6:24pm 16 18 mph 1007.2mb 70f 90f
6:18pm 15 17 mph 1007.2mb 70f 90f
6:12pm 16 18 mph 1007.2mb 70f 90f
6:06pm 16 17 mph 1007.2mb 70f 91f
6:00pm 15 17 mph 1007.2mb 70f 91f
5:54pm 15 16 mph 1007.3mb 70f 93f
5:48pm 15 16 mph 1007.3mb 70f 91f
5:42pm 13
mph
1007.4mb 70f 92f
5:36pm 11
mph
1007.4mb 70f 90f
5:30pm 10 11 mph 1007.4mb 70f 91f
5:24pm 11 13 mph 1007.4mb 70f 92f
5:18pm 10 11 mph 1007.4mb 70f 91f
5:12pm 10
mph
1007.4mb 70f 89f
5:06pm 8 9 mph 1007.5mb 70f 89f
5:00pm 8 11 mph 1007.5mb 70f 89f
4:54pm 10 13 mph 1007.4mb 70f 92f
4:48pm 11 14 mph 1007.4mb 70f 90f
4:42pm 13 15 mph 1007.4mb 70f 90f
4:36pm 14 15 mph 1007.5mb 70f 90f
4:00pm 14 16 mph 1007.8mb 69f 88f
3:54pm 14 15 mph 1007.9mb 69f 88f
3:48pm 13 14 mph 1008mb 69f 88f
3:42pm 11 14 mph 1008.1mb 69f 89f
3:36pm 13 15 mph 1008.1mb 69f 89f
3:30pm 11 14 mph 1008.2mb 69f 89f
3:24pm 11 13 mph 1008.3mb 70f 89f
3:18pm 11 14 mph 1008.3mb 70f 89f
3:12pm 14
mph
1008.4mb 70f 87f
3:06pm 13 14 mph 1008.5mb 70f 87f
3:00pm 13 15 mph 1008.5mb 70f 87f
2:54pm 14 15 mph 1008.5mb 70f 86f
2:48pm 14
mph
1008.6mb 69f 87f
2:42pm 13 14 mph 1008.7mb 69f 86f
2:36pm 14 15 mph 1008.8mb 69f 86f
2:30pm 14 15 mph 1008.9mb 70f 86f
2:24pm 13 14 mph 1009mb 70f 86f
2:18pm 11 13 mph 1009mb 69f 87f
2:12pm 10 13 mph 1009.1mb 69f 86f
2:06pm 11 13 mph 1009.1mb 69f 85f
2:00pm 13
mph
1009.2mb 69f 85f
1:54pm 13 14 mph 1009.4mb 69f 84f
1:48pm 11 13 mph 1009.5mb 69f 83f
1:42pm 11 14 mph 1009.6mb 69f 82f
1:36pm 11 14 mph 1009.7mb 69f 83f
1:30pm 11 14 mph 1009.8mb 69f 82f
1:24pm 13 14 mph 1009.8mb 69f 82f
1:18pm 13 14 mph 1009.9mb 69f 82f
1:12pm 13 15 mph 1010mb 69f 81f
1:06pm 14 15 mph 1010mb 69f 81f
1:00pm 13 15 mph 1010mb 69f 81f
12:54pm 14 15 mph 1010.2mb 69f 80f
12:48pm 13 15 mph 1010.1mb 69f 79f
12:42pm 15 16 mph 1010.2mb 69f 79f
12:36pm 14 15 mph 1010.3mb 69f 79f
12:30pm 15 16 mph 1010.3mb 69f 79f
12:24pm 14 15 mph 1010.4mb 69f 78f
12:18pm 14 15 mph 1010.4mb 69f 78f
12:12pm 14 15 mph 1010.5mb 70f 78f
12:06pm 14
mph
1010.5mb 70f 78f
12:00pm 13 14 mph 1010.6mb 70f 78f
11:54am 11 13 mph 1010.6mb 70f 77f
11:48am 11 14 mph 1010.7mb 70f 77f
11:42am 13 14 mph 1010.7mb 70f 76f
11:36am 13 14 mph 1010.8mb 70f 75f
11:30am 13 14 mph 1010.8mb 70f 75f
11:24am 13 14 mph 1010.8mb 70f 75f
11:18am 13 14 mph 1010.8mb 70f 75f
11:12am 13 14 mph 1010.9mb 70f 74f
11:06am 13 15 mph 1010.9mb 70f 74f
11:00am 13 15 mph 1010.9mb 70f 74f
10:54am 14 16 mph 1010.9mb 70f 73f
10:48am 14 16 mph 1010.9mb 70f 73f
10:42am 14 16 mph 1011mb 70f 72f
10:36am 13 15 mph 1011mb 70f 72f
10:30am 13 15 mph 1011.1mb 70f 71f
10:24am 14 15 mph 1011.1mb 70f 71f
10:18am 10 14 mph 1011.2mb 70f 71f
10:12am 10 14 mph 1011.2mb 70f 71f
10:06am 11 14 mph 1011.3mb 70f 71f
10:00am 10 14 mph 1011.3mb 70f 71f
9:54am 11 14 mph 1011.3mb 70f 70f
9:48am 10 13 mph 1011.2mb 70f 69f
9:42am 9 13 mph 1011.3mb 69f 69f
9:36am 11 13 mph 1011.2mb 69f 68f
9:30am 10 13 mph 1011.3mb 69f 67f
9:24am 11 14 mph 1011.3mb 69f 67f
9:18am 13 14 mph 1011.4mb 69f 66f
9:12am 11 14 mph 1011.4mb 69f 66f
9:06am 10 11 mph 1011.5mb 69f 66f
9:00am 10 11 mph 1011.6mb 69f 65f
8:54am 10 13 mph 1011.7mb 69f 65f
8:48am 10 14 mph 1011.6mb 69f 64f
8:42am 13
mph
1011.6mb 69f 64f
8:36am 11 14 mph 1011.7mb 69f 64f
8:30am 10 13 mph 1011.7mb 69f 64f
8:24am 13 15 mph 1011.7mb 69f 63f
8:18am 13 14 mph 1011.6mb 69f 63f
8:12am 13 16 mph 1011.6mb 69f 63f
8:06am 10 15 mph 1011.7mb 69f 62f
8:00am 14 15 mph 1011.7mb 69f 62f
7:54am 14 15 mph 1011.7mb 69f 62f
7:48am 14 15 mph 1011.7mb 68f 61f
7:42am 14 16 mph 1011.7mb 68f 61f
7:36am 14 16 mph 1011.7mb 68f 61f
7:30am 14 15 mph 1011.6mb 68f 61f
7:24am 14 16 mph 1011.6mb 68f 61f
7:18am 14 16 mph 1011.7mb 68f 60f
7:12am 15 17 mph 1011.7mb 68f 60f
7:06am 15 18 mph 1011.7mb 68f 60f
7:00am 15 18 mph 1011.6mb 68f 60f
6:54am 15 17 mph 1011.5mb 68f 60f
6:48am 15 17 mph 1011.6mb 68f 60f
6:42am 14 17 mph 1011.5mb 68f 60f
6:36am 15 17 mph 1011.5mb 68f 60f
6:30am 15 18 mph 1011.5mb 68f 60f
6:24am 14 17 mph 1011.5mb 68f 60f
6:18am 15 16 mph 1011.5mb 68f 60f
6:12am 14 16 mph 1011.5mb 68f 60f
6:06am 14 17 mph 1011.4mb 68f 60f
6:00am 14 17 mph 1011.3mb 68f 60f
5:54am 15 18 mph 1011.2mb 68f 60f
5:48am 15 17 mph 1011.1mb 68f 60f
5:42am 14 17 mph 1011.1mb 68f 60f
5:36am 15 17 mph 1011.1mb 68f 60f
5:30am 15 17 mph 1010.9mb 68f 60f
5:24am 15 17 mph 1010.9mb 68f 60f
5:18am 15 17 mph 1010.9mb 68f 60f
5:12am 15 16 mph 1011mb 69f 60f
5:06am 15 17 mph 1011mb 69f 60f
5:00am 15 17 mph 1011.1mb 69f 60f
4:54am 14 15 mph 1011.1mb 69f 61f
4:48am 14 17 mph 1011.1mb 69f 61f
4:42am 15 17 mph 1011.1mb 69f 61f
4:36am 15 17 mph 1011.2mb 69f 61f
4:30am 14 16 mph 1011.2mb 69f 61f
4:24am 14 18 mph 1011.2mb 69f 61f
4:18am 16 18 mph 1011.1mb 69f 61f
4:12am 14 16 mph 1011.1mb 69f 62f
4:06am 14 16 mph 1011.2mb 69f 62f
4:00am 13 16 mph 1011.2mb 69f 62f
3:54am 14 16 mph 1011.1mb 69f 62f
3:48am 15 17 mph 1011.1mb 69f 62f
3:42am 13 15 mph 1011.2mb 69f 62f
3:36am 14 16 mph 1011.2mb 69f 62f
3:30am 14 16 mph 1011.2mb 69f 63f
3:24am 13 15 mph 1011.3mb 69f 62f
3:18am 13 15 mph 1011.4mb 69f 62f
3:12am 13 14 mph 1011.3mb 69f 63f
3:06am 10 15 mph 1011.4mb 69f 63f
3:00am 13 14 mph 1011.3mb 69f 63f
2:54am 11 14 mph 1011.3mb 69f 63f
2:48am 14 15 mph 1011.4mb 69f 63f
2:42am 11 13 mph 1011.3mb 69f 63f
2:36am 13 15 mph 1011.4mb 69f 63f
2:30am 11 13 mph 1011.5mb 69f 63f
2:24am 10 11 mph 1011.7mb 69f 63f
2:18am 9 11 mph 1011.7mb 69f 63f
2:12am 8 10 mph 1011.7mb 69f 63f
2:06am 8 11 mph 1011.8mb 69f 63f
2:00am 10 13 mph 1011.6mb 69f 63f
1:54am 10 11 mph 1011.6mb 69f 63f
1:48am 9 13 mph 1011.6mb 69f 63f
1:42am 10 14 mph 1011.7mb 69f 63f
1:36am 13 16 mph 1011.6mb 69f 63f
1:30am 13 14 mph 1011.5mb 69f 63f
1:24am 13 14 mph 1011.5mb 69f 63f
1:18am 11 15 mph 1011.5mb 69f 63f
1:12am 13 14 mph 1011.5mb 69f 63f
1:06am 10 15 mph 1011.6mb 69f 63f
1:00am 14 17 mph 1011.6mb 69f 63f
12:54am 14 16 mph 1011.6mb 69f 63f
12:48am 14 20 mph 1011.5mb 69f 63f
12:42am 17 21 mph 1011.3mb 69f 63f
12:36am 16 20 mph 1011.4mb 69f 64f
12:30am 17 18 mph 1011.5mb 69f 64f
12:24am 15 17 mph 1011.5mb 69f 64f
12:18am 14 17 mph 1011.5mb 69f 64f
12:12am 14 16 mph 1011.5mb 69f 65f
12:06am 14 17 mph 1011.5mb 69f 65f
12:00am 16 18 mph 1011.5mb 69f 65f
Mon 06/29 11:54pm 16 18 mph 1011.6mb 69f 65f
11:48pm 16 17 mph - 69f -
11:42pm 13 17 mph - 69f -
11:36pm 15 17 mph - 69f -
11:30pm 14 16 mph 1011.9mb 69f 66f
11:24pm 14 16 mph 1011.9mb 69f 67f
11:18pm 14 16 mph 1011.9mb 69f 67f
11:12pm 13 15 mph 1011.9mb 69f 68f
11:06pm 13 15 mph 1011.9mb 69f 69f
11:00pm 11 13 mph 1012mb 69f 69f
10:54pm 10 13 mph 1012mb 69f 69f
10:48pm 9 13 mph 1012mb 69f 70f
10:42pm 8 13 mph 1011.9mb 69f 70f
10:36pm 10 11 mph 1011.9mb 69f 71f
10:30pm 10 11 mph 1011.9mb 69f 71f
10:24pm 10 11 mph 1011.9mb 69f 71f
10:18pm 8 11 mph 1011.9mb 69f 71f
10:12pm 9 11 mph 1011.8mb 69f 72f
10:06pm 9 13 mph 1011.8mb 69f 72f
10:00pm 8 9 mph 1011.8mb 69f 72f
9:54pm 9 11 mph 1011.7mb 69f 73f
9:48pm 8 9 mph 1011.7mb 70f 73f
9:42pm 8 9 mph 1011.7mb 70f 73f
9:36pm 7 8 mph 1011.7mb 70f 73f
9:30pm 7 8 mph 1011.7mb 70f 73f
9:24pm 7 9 mph 1011.6mb 70f 74f
9:18pm 6 8 mph 1011.5mb 70f 74f
9:12pm 7 8 mph 1011.5mb 71f 74f
9:06pm 7 9 mph 1011.5mb 71f 76f
9:00pm 7 11 mph 1011.5mb 71f 76f
8:54pm 8 13 mph 1011.4mb 70f 76f
8:48pm 11 14 mph 1011.4mb 70f 76f
8:42pm 9 13 mph 1011.3mb 70f 76f
8:36pm 8 11 mph 1011.3mb 71f 76f
8:30pm 10 11 mph 1011.3mb 71f 76f
8:24pm 11 14 mph 1011.3mb 71f 76f
8:18pm 13 14 mph 1011.3mb 71f 76f
8:12pm 11 14 mph 1011.2mb 71f 76f
8:06pm 14 15 mph 1011.2mb 71f 76f
8:00pm 11 14 mph 1011.2mb 71f 76f
7:54pm 13 15 mph 1011.2mb 71f 76f
7:48pm 14 15 mph 1011.1mb 71f 76f
7:42pm 11 14 mph 1011mb 71f 76f
7:36pm 13 14 mph 1011.1mb 71f 77f
7:30pm 13 14 mph 1011.1mb 71f 77f
7:24pm 11 13 mph 1011.2mb 70f 77f
7:18pm 11 14 mph 1011.2mb 70f 77f
7:12pm 11 14 mph 1011.2mb 70f 77f
7:06pm 10 15 mph 1011.2mb 70f 77f
7:00pm 14 16 mph 1011.2mb 70f 77f
6:54pm 14 16 mph 1011.2mb 70f 77f
6:48pm 15 17 mph 1011.1mb 70f 78f
6:42pm 13 16 mph 1011mb 70f 77f
6:36pm 14 16 mph 1011mb 70f 78f
6:30pm 14 16 mph 1011.1mb 70f 77f
6:24pm 15 17 mph 1011mb 70f 78f
6:18pm 14 17 mph 1011mb 70f 77f
6:12pm 14 17 mph 1011.1mb 70f 78f
6:06pm 14 18 mph 1011.1mb 70f 77f
6:00pm 14 18 mph 1011mb 70f 78f
5:54pm 15 17 mph 1010.9mb 70f 78f
5:48pm 16 18 mph 1011mb 70f 78f
5:36pm 15 17 mph 1011.1mb 70f 79f
5:30pm 15 18 mph 1011.1mb 69f 79f
5:24pm 15 20 mph 1011mb 69f 78f
5:18pm 21 23 mph 1010.9mb 69f 79f
5:12pm 18 21 mph 1010.9mb 69f 79f
5:06pm 17 20 mph 1010.9mb 69f 79f
5:00pm 17 20 mph 1011mb 70f 79f
4:54pm 18 21 mph 1011mb 70f 78f
4:48pm 17 18 mph 1011.2mb 70f 79f
4:42pm 17 18 mph 1011.3mb 70f 79f
4:36pm 16 18 mph 1011.3mb 70f 79f
4:30pm 15 18 mph 1011.4mb 70f 79f
4:24pm 14 20 mph 1011.6mb 70f 78f
4:18pm 14 18 mph 1011.6mb 70f 78f
4:12pm 17 20 mph 1011.6mb 70f 79f
4:06pm 16 17 mph 1011.8mb 70f 78f
4:00pm 17 18 mph 1011.8mb 70f 78f
3:54pm 15 18 mph 1011.9mb 70f 78f
3:48pm 16 18 mph 1011.9mb 70f 78f
3:42pm 15 17 mph 1012mb 70f 78f
3:36pm 17 22 mph 1012mb 69f 78f
3:30pm 18 21 mph 1012.1mb 69f 78f
3:24pm 20 21 mph 1012.1mb 69f 78f
3:18pm 18 22 mph 1012.2mb 69f 78f
3:12pm 20 22 mph 1012.2mb 69f 78f
3:06pm 20 22 mph 1012.3mb 69f 77f
3:00pm 18 21 mph 1012.5mb 69f 77f
2:54pm 16 20 mph 1012.5mb 69f 77f
2:48pm 16 20 mph 1012.7mb 69f 77f
2:42pm 15 20 mph 1012.8mb 69f 77f
2:36pm 17 20 mph 1012.8mb 69f 76f
2:30pm 17 21 mph 1012.9mb 68f 76f
2:24pm 17 20 mph 1012.9mb 68f 77f
2:18pm 15 20 mph 1013mb 68f 76f
2:12pm 20 21 mph 1013mb 68f 76f
2:06pm 17 18 mph 1013.1mb 68f 75f
2:00pm 16 18 mph 1013.2mb 68f 75f
1:54pm 17 18 mph 1013.3mb 68f 76f
1:48pm 16 18 mph 1013.4mb 68f 75f
1:42pm 15 17 mph 1013.5mb 68f 75f
1:36pm 15 18 mph 1013.5mb 68f 74f
1:30pm 15 21 mph 1013.5mb 68f 74f
1:24pm 16 20 mph 1013.5mb 69f 74f
1:18pm 16 20 mph 1013.6mb 69f 74f
1:12pm 15 18 mph 1013.8mb 69f 73f
1:06pm 16 18 mph 1013.8mb 69f 73f
1:00pm 15 18 mph 1013.8mb 69f 72f
12:54pm 15 18 mph 1013.9mb 69f 73f
12:48pm 17 20 mph 1014mb 69f 72f
12:42pm 17 20 mph 1014mb 69f 72f
12:36pm 16 18 mph 1014.1mb 69f 71f
12:30pm 16 18 mph 1014.1mb 69f 71f
12:24pm 16 20 mph 1014.2mb 69f 70f
12:18pm 17 20 mph 1014.2mb 69f 70f
12:12pm 17 20 mph 1014.3mb 69f 69f
12:06pm 16 18 mph 1014.4mb 69f 69f
12:00pm 17 20 mph 1014.5mb 69f 69f
11:54am 15 20 mph 1014.5mb 69f 68f
11:48am 17 21 mph 1014.5mb 69f 68f
11:42am 18 22 mph 1014.5mb 69f 67f
11:36am 18 22 mph 1014.5mb 69f 67f
11:30am 17 18 mph 1014.6mb 69f 67f
11:24am 18 22 mph 1014.7mb 69f 67f
11:18am 20 22 mph 1014.6mb 69f 66f
11:12am 18 21 mph 1014.7mb 69f 66f
11:06am 18 21 mph 1014.7mb 69f 66f
11:00am 15 22 mph 1014.8mb 69f 65f
10:54am 17 20 mph 1014.7mb 69f 65f
10:48am 18 20 mph 1014.8mb 69f 64f
10:42am 17 21 mph 1014.7mb 69f 64f
10:36am 16 21 mph 1014.7mb 69f 64f
10:30am 16 20 mph 1014.9mb 69f 64f
10:24am 18 20 mph 1014.9mb 69f 63f
10:18am 17 20 mph 1015.1mb 69f 63f
10:12am 17 20 mph 1015.1mb 69f 63f
10:06am 17 18 mph 1015.1mb 69f 62f
10:00am 16 17 mph 1015.2mb 69f 62f
9:54am 16 18 mph 1015.3mb 69f 62f
9:48am 15 18 mph 1015.3mb 69f 62f
9:42am 15 18 mph 1015.3mb 69f 61f
9:36am 17 21 mph 1015.3mb 69f 61f
9:30am 17 20 mph 1015.3mb 69f 61f
9:24am 16 18 mph 1015.3mb 69f 61f
9:18am 15 17 mph 1015.4mb 69f 61f
9:12am 16 18 mph 1015.4mb 69f 60f
9:06am 15 16 mph 1015.4mb 69f 60f
9:00am 15 18 mph 1015.4mb 69f 60f
8:54am 15 18 mph 1015.2mb 69f 60f
8:48am 15 17 mph 1015.2mb 69f 60f
8:42am 16 18 mph 1015.2mb 69f 60f
8:36am 14 17 mph 1015.2mb 69f 60f
8:30am 15 17 mph 1015.2mb 69f 60f
8:24am 15 18 mph 1015.2mb 69f 60f
8:18am 15 17 mph 1015.2mb 68f 60f
8:12am 11 17 mph 1015.2mb 68f 60f
8:06am 13 15 mph 1015.2mb 68f 60f
8:00am 11 15 mph 1015.3mb 68f 59f
7:54am 11 16 mph 1015.2mb 68f 59f
7:48am 14 16 mph 1015.1mb 68f 59f
7:42am 13 15 mph 1015.2mb 68f 59f
7:36am 11 17 mph 1015.1mb 68f 60f
7:30am 14 17 mph 1015mb 68f 59f
7:24am 13 18 mph 1015.1mb 68f 59f
7:18am 14 17 mph 1015.1mb 68f 59f
7:12am 15 17 mph 1015.1mb 68f 59f
7:06am 15 17 mph 1015.2mb 68f 59f
7:00am 13 17 mph 1015.2mb 68f 59f
6:54am 16 20 mph 1015.2mb 68f 59f
6:48am 16 20 mph 1015.2mb 68f 59f
6:42am 15 18 mph 1015.2mb 68f 59f
6:36am 14 17 mph 1015.2mb 68f 59f
6:30am 16 18 mph 1015.1mb 68f 58f
6:24am 15 18 mph 1015.1mb 68f 58f
6:18am 16 17 mph 1015.1mb 68f 59f
6:12am 15 18 mph 1015.1mb 68f 59f
6:06am 15 17 mph 1014.9mb 68f 59f
6:00am 14 17 mph 1014.9mb 68f 59f
5:54am 15 17 mph 1014.9mb 68f 59f
5:48am 16 21 mph 1014.7mb 68f 59f
5:42am 14 18 mph 1014.7mb 68f 60f
5:36am 15 21 mph 1014.7mb 68f 59f
5:30am 14 18 mph 1014.7mb 68f 59f
5:24am 11 15 mph 1014.6mb 68f 60f
5:18am 11 16 mph 1014.6mb 68f 60f
5:12am 13 20 mph 1014.6mb 68f 60f
5:06am 15 18 mph 1014.5mb 68f 59f
5:00am 14 17 mph 1014.4mb 68f 60f
4:54am 15 17 mph 1014.5mb 68f 60f
4:48am 14 18 mph 1014.4mb 68f 60f
4:42am 14 20 mph 1014.3mb 68f 60f
4:36am 16 20 mph 1014.3mb 68f 60f
4:30am 15 20 mph 1014.3mb 68f 60f
4:24am 16 20 mph 1014.3mb 68f 60f
4:18am 15 17 mph 1014.3mb 68f 60f
4:12am 13 16 mph 1014.3mb 68f 60f
4:06am 13 16 mph 1014.3mb 68f 60f
4:00am 13 16 mph 1014.4mb 68f 61f
3:54am 17 21 mph 1014.4mb 68f 60f
3:48am 17 22 mph 1014.4mb 68f 60f
3:42am 16 21 mph 1014.5mb 68f 60f
3:36am 16 22 mph 1014.5mb 68f 60f
3:30am 17 21 mph 1014.4mb 68f 60f
3:24am 16 21 mph 1014.3mb 68f 60f
3:18am 16 20 mph 1014.4mb 68f 60f
3:12am 16 21 mph 1014.4mb 68f 60f
3:06am 20 22 mph 1014.4mb 68f 60f
3:00am 16 21 mph 1014.4mb 68f 60f
2:54am 18 22 mph 1014.5mb 68f 60f
2:48am 17 21 mph 1014.5mb 68f 60f
2:42am 15 20 mph 1014.6mb 68f 60f
2:36am 17 20 mph 1014.7mb 68f 60f
2:30am 16 22 mph 1014.7mb 68f 60f
2:24am 20 23 mph 1014.7mb 68f 60f
2:18am 20 23 mph 1014.6mb 68f 60f
2:12am 18 22 mph 1014.7mb 68f 60f
2:06am 18 22 mph 1014.7mb 68f 60f
2:00am 20 24 mph 1014.6mb 68f 60f
1:54am 18 22 mph 1014.6mb 68f 61f
1:48am 17 22 mph 1014.7mb 68f 61f
1:42am 17 22 mph 1014.8mb 68f 61f
1:36am 18 21 mph 1014.7mb 69f 61f
1:30am 17 20 mph 1014.7mb 69f 61f
1:24am 18 21 mph 1014.7mb 69f 61f
1:18am 17 21 mph 1014.6mb 69f 61f
1:12am 16 20 mph 1014.6mb 69f 61f
1:06am 16 21 mph 1014.6mb 69f 61f
1:00am 18 22 mph 1014.6mb 69f 61f
12:54am 17 21 mph 1014.6mb 68f 61f
12:48am 15 20 mph 1014.7mb 68f 62f
12:42am 16 20 mph 1014.8mb 68f 61f
12:36am 15 18 mph 1014.6mb 68f 61f
12:30am 16 18 mph 1014.5mb 68f 61f
12:24am 15 18 mph 1014.6mb 68f 61f
12:18am 18 21 mph 1014.5mb 68f 62f
12:12am 17 20 mph 1014.4mb 68f 61f
12:06am 17 20 mph 1014.5mb 68f 61f
12:00am 16 18 mph 1014.5mb 68f 61f
Sun 06/28 11:54pm 17 20 mph 1014.6mb 68f 61f
11:48pm 15 18 mph - - 61f
11:42pm 14 18 mph - - 61f
11:36pm 14 17 mph - - 61f
11:30pm 14 17 mph - 68f 62f
11:24pm 13 18 mph - 68f 62f
11:18pm 15 17 mph - - -
11:12pm 16 18 mph - - -
11:06pm 14 17 mph - - -
11:00pm 11 16 mph 1014.6mb 68f 62f
10:54pm 15 18 mph 1014.7mb 68f 62f
10:48pm 16 22 mph 1014.5mb 68f 62f
10:42pm 18 22 mph 1014.4mb 68f 62f
10:36pm 20 23 mph 1014.4mb 68f 62f
10:30pm 18 22 mph 1014.4mb 68f 62f
10:24pm 17 22 mph 1014.4mb 68f 63f
10:18pm 16 20 mph 1014.3mb 68f 63f
10:12pm 17 21 mph 1014.2mb 68f 62f
10:06pm 16 18 mph 1014.3mb 68f 62f
10:00pm 16 18 mph 1014.2mb 68f 62f
9:54pm 16 18 mph 1014.1mb 68f 62f
9:48pm 15 16 mph 1014.2mb 69f 63f
9:42pm 15 16 mph 1014.2mb 69f 63f
9:36pm 14 16 mph 1014.2mb 69f 63f
9:30pm 15 18 mph 1014.2mb 69f 63f
9:24pm 17 18 mph 1014mb 69f 63f
9:18pm 16 18 mph 1014mb 69f 64f
9:12pm 16 20 mph 1014mb 69f 64f
9:06pm 16 18 mph 1014mb 69f 64f
9:00pm 16 20 mph 1013.8mb 70f 65f
8:54pm 16 20 mph 1013.7mb 70f 65f
8:48pm 15 17 mph 1013.7mb 70f 65f
8:42pm 15 18 mph 1013.7mb 70f 65f
8:36pm 13 16 mph 1013.8mb 70f 65f
8:30pm 13 16 mph 1013.9mb 70f 66f
8:24pm 13 16 mph 1013.9mb 70f 66f
8:18pm 14 17 mph 1013.9mb 70f 66f
8:12pm 14 16 mph 1014mb 70f 67f
8:06pm 13 16 mph 1014mb 70f 67f
8:00pm 14 17 mph 1013.9mb 70f 67f
7:54pm 14 16 mph 1013.9mb 70f 67f
7:48pm 11 13 mph 1013.9mb 70f 68f
7:42pm 9 13 mph 1013.9mb 70f 68f
7:36pm 13 15 mph 1013.8mb 70f 68f
7:30pm 14 15 mph 1013.7mb 71f 69f
7:24pm 13 16 mph 1013.6mb 71f 69f
7:18pm 11 14 mph 1013.6mb 71f 69f
7:12pm 10 14 mph 1013.5mb 70f 70f
7:06pm 10 15 mph 1013.5mb 70f 70f
7:00pm 11 18 mph 1013.5mb 70f 69f
6:54pm 15 20 mph 1013.4mb 70f 69f
6:48pm 15 18 mph 1013.3mb 70f 70f
6:42pm 16 20 mph 1013.2mb 70f 70f
6:36pm 15 20 mph 1013.3mb 70f 70f
6:30pm 15 17 mph 1013.3mb 70f 70f
6:24pm 15 18 mph 1013.2mb 70f 70f
6:18pm 16 21 mph 1013.2mb 70f 70f
6:12pm 17 21 mph 1013.2mb 69f 70f
6:06pm 16 21 mph 1013.2mb 69f 70f
6:00pm 17 20 mph 1013.2mb 69f 71f
5:54pm 16 18 mph 1013.2mb 69f 71f
5:48pm 15 17 mph 1013.1mb 69f 73f
5:42pm 13 16 mph 1013.2mb 69f 73f
5:36pm 15 17 mph 1013.1mb 69f 73f
5:30pm 13 18 mph 1013.1mb 69f 73f
5:24pm 14 17 mph 1013mb 69f 73f
5:18pm 15 18 mph 1013.1mb 69f 73f
5:12pm 17 20 mph 1013.2mb 69f 73f
5:06pm 16 20 mph 1013.2mb 69f 73f
5:00pm 17 21 mph 1013.1mb 69f 73f
4:54pm 15 20 mph 1013mb 69f 73f
4:48pm 16 21 mph 1012.9mb 69f 73f
4:42pm 15 22 mph 1012.9mb 69f 72f
4:36pm 18 22 mph 1012.8mb 69f 71f
4:30pm 20 22 mph 1012.8mb 69f 73f
4:24pm 16 20 mph 1012.8mb 69f 72f
4:18pm 18 21 mph 1012.9mb 69f 72f
4:12pm 17 23 mph 1012.8mb 69f 72f
4:06pm 17 23 mph 1012.6mb 69f 72f
4:00pm 18 22 mph 1012.6mb 69f 73f
3:54pm 18 22 mph 1012.6mb 69f 73f
3:48pm 18 22 mph 1012.6mb 69f 73f
3:42pm 17 22 mph 1012.7mb 69f 73f
3:36pm 17 22 mph 1012.7mb 69f 73f
3:30pm 16 20 mph 1012.9mb 69f 72f
3:24pm 15 18 mph 1013.2mb 69f 72f
3:18pm 15 20 mph 1013.3mb 69f 73f
3:12pm 14 17 mph 1013.4mb 69f 73f
3:06pm 13 18 mph 1013.5mb 69f 72f
3:00pm 13 18 mph 1013.7mb 69f 72f
2:54pm 15 18 mph 1013.8mb 69f 72f
2:48pm 16 22 mph 1013.7mb 69f 72f
2:42pm 16 20 mph 1013.8mb 69f 72f
2:36pm 15 18 mph 1013.9mb 69f 72f
2:30pm 16 18 mph 1014mb 69f 72f
2:24pm 16 20 mph 1014mb 69f 72f
2:18pm 15 20 mph 1014mb 69f 72f
2:12pm 15 22 mph 1014mb 69f 71f
2:06pm 17 18 mph 1014.1mb 69f 72f
2:00pm 17 20 mph 1014.2mb 69f 71f
1:54pm 16 20 mph 1014.2mb 69f 72f
1:48pm 16 20 mph 1014.2mb 69f 71f
1:42pm 17 20 mph 1014.3mb 69f 71f
1:36pm 16 20 mph 1014.3mb 69f 71f
1:30pm 17 21 mph 1014.3mb 69f 71f
1:24pm 17 21 mph 1014.4mb 69f 70f
1:18pm 17 21 mph 1014.4mb 69f 70f
1:12pm 17 21 mph 1014.4mb 69f 69f
1:06pm 17 21 mph 1014.5mb 69f 70f
1:00pm 17 21 mph 1014.5mb 69f 69f
12:54pm 18 20 mph 1014.6mb 69f 69f
12:48pm 17 21 mph 1014.6mb 69f 69f
12:42pm 18 21 mph 1014.7mb 68f 69f
12:36pm 20 22 mph 1014.7mb 68f 69f
12:30pm 18 22 mph 1014.9mb 68f 69f
12:24pm 17 22 mph 1014.9mb 68f 69f
12:18pm 18 21 mph 1014.8mb 68f 68f
12:12pm 18 21 mph 1014.9mb 68f 68f
12:06pm 16 21 mph 1014.9mb 68f 68f
12:00pm 17 21 mph 1014.9mb 69f 68f
11:54am 17 21 mph 1014.9mb 69f 68f
11:48am 16 22 mph 1014.9mb 69f 67f
11:42am 17 20 mph 1014.8mb 69f 67f
11:36am 15 20 mph 1014.9mb 69f 67f
11:30am 14 20 mph 1015mb 69f 67f
11:24am 18 21 mph 1015mb 69f 67f
11:18am 17 21 mph 1014.9mb 69f 67f
11:12am 16 18 mph 1014.9mb 69f 67f
11:06am 16 17 mph 1014.9mb 69f 66f
11:00am 15 18 mph 1014.9mb 69f 66f
10:54am 15 18 mph 1015mb 69f 65f
10:48am 17 20 mph 1015mb 69f 65f
10:42am 17 22 mph 1014.9mb 69f 64f
10:36am 21 23 mph 1014.8mb 69f 64f
10:30am 20 23 mph 1014.7mb 69f 64f
10:24am 16 22 mph 1014.8mb 69f 64f
10:18am 18 22 mph 1014.8mb 69f 63f
10:12am 18 23 mph 1014.7mb 69f 63f
10:06am 18 23 mph 1014.8mb 69f 63f
10:00am 18 22 mph 1014.8mb 69f 63f
9:54am 17 20 mph 1014.9mb 69f 63f
9:48am 17 22 mph 1014.9mb 69f 63f
9:42am 16 22 mph 1015.1mb 69f 63f
9:36am 21 25 mph 1015.1mb 69f 62f
9:30am 17 22 mph 1015mb 69f 63f
9:24am 17 22 mph 1015.1mb 69f 62f
9:18am 16 21 mph 1015.2mb 69f 62f
9:12am 17 21 mph 1015.1mb 69f 62f
9:06am 20 22 mph 1015mb 69f 62f
9:00am 18 22 mph 1014.9mb 69f 62f
8:54am 16 22 mph 1015.1mb 69f 63f
8:48am 20 22 mph 1015.2mb 69f 62f
8:42am 16 20 mph 1015.1mb 69f 62f
8:36am 17 22 mph 1015.1mb 69f 62f
8:30am 16 21 mph 1015.2mb 69f 63f
8:24am 16 18 mph 1015mb 69f 63f
8:18am 16 18 mph 1015.1mb 69f 63f
8:12am 16 17 mph 1015mb 69f 63f
8:06am 14 16 mph 1015.1mb 69f 62f
8:00am 14 17 mph 1015.1mb 69f 62f
7:54am 14 18 mph 1015mb 69f 63f
7:48am 17 18 mph 1014.9mb 69f 62f
7:42am 16 18 mph 1014.9mb 69f 62f
7:36am 16 21 mph 1014.9mb 69f 62f
7:30am 13 18 mph 1014.9mb 68f 62f
7:24am 13 17 mph 1015mb 68f 62f
7:18am 16 21 mph 1014.9mb 68f 61f
7:12am 16 23 mph 1014.7mb 68f 61f
7:06am 18 22 mph 1014.7mb 68f 61f
7:00am 20 23 mph 1014.7mb 68f 61f
6:54am 18 21 mph 1014.6mb 68f 61f
6:48am 16 18 mph 1014.7mb 68f 62f
6:42am 14 17 mph 1014.7mb 68f 62f
6:36am 15 17 mph 1014.7mb 68f 62f
6:30am 16 18 mph 1014.8mb 68f 62f
6:24am 13 16 mph 1015mb 68f 62f
6:18am 10 14 mph 1015mb 68f 62f
6:12am 10 17 mph 1014.9mb 68f 62f
6:06am 10 15 mph 1014.7mb 68f 62f
6:00am 11 15 mph 1014.4mb 68f 62f
5:54am 13 17 mph 1014.3mb 68f 62f
5:48am 14 17 mph 1014.3mb 68f 62f
5:42am 15 18 mph 1014mb 68f 62f
5:36am 14 16 mph 1014mb 68f 62f
5:30am 14 16 mph 1014.1mb 68f 62f
5:24am 13 18 mph 1014mb 68f 62f
5:18am 14 15 mph 1014.1mb 68f 62f
5:12am 13 15 mph 1014.1mb 68f 62f
5:06am 11 15 mph 1014.1mb 68f 62f
5:00am 11 15 mph 1014.1mb 68f 62f
4:54am 11 13 mph 1014.2mb 68f 62f
4:48am 10 14 mph 1014.5mb 68f 62f
4:42am 10 14 mph 1014.3mb 68f 62f
4:36am 13 15 mph 1014.4mb 68f 62f
4:30am 11 14 mph 1014.2mb 68f 62f
4:24am 15 17 mph 1014.3mb 68f 62f
4:18am 11 15 mph 1013.9mb 68f 62f
4:12am 10 14 mph 1014mb 68f 62f
4:06am 11 15 mph 1014mb 68f 62f
4:00am 10 13 mph 1013.8mb 68f 62f
3:54am 11 16 mph 1013.2mb 68f 62f
3:48am 13 16 mph 1013.3mb 68f 62f
3:42am 13 15 mph 1013.8mb 68f 62f
3:36am 13 20 mph 1013.7mb 68f 63f
3:30am 15 18 mph 1013.4mb 68f 62f
3:24am 13 15 mph 1013.3mb 68f 63f
3:18am 13 16 mph 1014mb 68f 63f
3:12am 14 18 mph 1013.8mb 68f 63f
3:06am 13 16 mph 1013.7mb 68f 62f
3:00am 15 17 mph - - 62f
2:54am 13 15 mph - - 62f
2:48am  -  mph 1014.3mb 68f -
2:42am  -  mph 1014.6mb 68f -
2:36am  -  mph 1014.6mb 68f -
2:18am  -  mph - - 62f
2:12am  -  mph - - 62f
2:06am  -  mph - - 62f
2:00am 10 13 mph 1014.5mb 68f 62f
1:54am 11 16 mph 1014.8mb 68f 62f
1:48am 10 16 mph 1014.7mb 68f 63f
1:42am 15 18 mph 1014.4mb 68f 63f
1:36am 16 17 mph 1013.8mb 68f 63f
1:30am 13 15 mph 1013.9mb 68f 62f
1:24am 16 20 mph 1014mb 68f 62f
1:18am 17 25 mph 1013.9mb 68f 62f
1:12am 18 23 mph 1013.6mb 68f 62f
1:06am 18 23 mph 1014mb 68f 62f
1:00am 17 21 mph 1014.3mb 68f 62f
12:54am 14 17 mph 1014.3mb 68f 62f
12:48am 14 16 mph 1014.3mb 68f 62f
12:42am 15 21 mph 1014.6mb 68f 62f
12:36am 14 20 mph 1014.6mb 68f 62f
12:30am 10 18 mph 1014.9mb 68f 62f
12:24am 10 14 mph 1014.9mb 68f 62f
12:00am 9 13 mph 1015mb - 62f
Sat 06/27 11:54pm 9 13 mph 1015mb - 62f
11:48pm 10 16 mph 1014.9mb 68f 62f
11:42pm 10 16 mph 1014.8mb 68f 62f
11:36pm 8 15 mph 1015mb 68f 62f
11:30pm 11 16 mph 1014.9mb 68f 62f
11:24pm 13 20 mph 1014.7mb 68f 62f
11:18pm 17 21 mph - - 62f
11:12pm 14 18 mph - - 62f
11:06pm 13 16 mph - - 62f
11:00pm 10 20 mph 1014.9mb 68f 62f
10:54pm 14 20 mph 1014.9mb 68f 63f
10:48pm 14 24 mph 1014.8mb 68f 63f
10:42pm 17 25 mph 1014.7mb 68f 64f
10:36pm 20 23 mph 1014.6mb 68f 63f
10:30pm 17 20 mph 1014.6mb 68f 64f
10:24pm 15 23 mph 1014.6mb 68f 64f
10:18pm 15 18 mph 1014.6mb 68f 64f
10:12pm 16 23 mph 1014.5mb 68f 64f
10:06pm 17 18 mph 1014.4mb 68f 63f
10:00pm 15 21 mph 1014.7mb 68f 64f
9:54pm 17 22 mph 1014.7mb 68f 64f
9:48pm 15 21 mph 1014.4mb 68f 64f
9:42pm 9 11 mph 1014.8mb 68f 64f
9:36pm 8 11 mph 1014.6mb 68f 63f
9:30pm 10 15 mph 1014.7mb 68f 63f
9:24pm 9 16 mph 1014.7mb 69f 63f
9:18pm 11 14 mph 1014.6mb 69f 64f
9:12pm 8 16 mph 1014.8mb 69f 64f
9:06pm 14 23 mph 1014.6mb 69f 63f
9:00pm 21 28 mph 1014.4mb 69f 63f
8:54pm 24 29 mph 1013.8mb 69f 64f
8:48pm 25 29 mph 1013.2mb 69f 64f
8:42pm 22 25 mph 1013.6mb 69f 64f
8:36pm 21 24 mph 1013.8mb 69f 64f
8:30pm 18 22 mph 1014.1mb 69f 64f
8:24pm 18 25 mph 1014.1mb 69f 65f
8:18pm 24 28 mph 1013.8mb 69f 64f
8:12pm 24 30 mph 1013.8mb 69f 65f
8:06pm 22 28 mph 1013.8mb 69f 65f
8:00pm 22 26 mph 1014mb 70f 65f
7:54pm 21 29 mph 1014.2mb 70f 66f
7:48pm 18 25 mph 1014.1mb 70f 66f
7:42pm 21 25 mph 1014mb 70f 66f
7:36pm 18 23 mph 1014mb 70f 66f
7:30pm 20 24 mph 1014mb 70f 66f
7:24pm 18 22 mph 1014.1mb 70f 66f
7:18pm 18 24 mph 1014.1mb 70f 66f
7:12pm 18 22 mph 1014.1mb 70f 66f
7:06pm 16 20 mph 1014.2mb 70f 66f
7:00pm 15 21 mph 1014.1mb 70f 66f
6:54pm 15 21 mph 1014.1mb 70f 66f
6:48pm 17 23 mph 1014.1mb 70f 66f
6:42pm 16 22 mph 1014mb 70f 67f
6:36pm 15 26 mph 1014mb 70f 67f
6:30pm 20 25 mph 1013.8mb 70f 66f
6:24pm 22 29 mph 1014mb 70f 66f
6:18pm 21 26 mph 1013.9mb 70f 67f
6:12pm 23 26 mph 1013.7mb 70f 67f
6:06pm 23 29 mph 1013.7mb 70f 67f
6:00pm 23 26 mph 1013.7mb 70f 67f
5:54pm 23 28 mph 1013.7mb 70f 67f
5:48pm 23 29 mph 1013.6mb 70f 67f
5:42pm 23 28 mph 1013.7mb 70f 67f
5:36pm 21 28 mph 1013.8mb 70f 67f
5:30pm 21 26 mph 1013.6mb 70f 68f
5:24pm 22 25 mph 1013.5mb 70f 68f
5:18pm 22 24 mph 1013.5mb 70f 68f
5:12pm 18 24 mph 1013.8mb 70f 68f
5:06pm 20 25 mph 1013.8mb 70f 68f
5:00pm 22 24 mph 1013.7mb 71f 68f
4:54pm 21 25 mph 1013.6mb 71f 68f
4:48pm 18 23 mph 1013.5mb 71f 68f
4:42pm 21 26 mph 1013.6mb 71f 68f
4:36pm 21 26 mph 1013.5mb 71f 68f
4:30pm 20 24 mph 1013.6mb 70f 69f
4:24pm 21 23 mph 1013.5mb 70f 69f
4:18pm 21 24 mph 1013.6mb 70f 69f
4:12pm 17 26 mph 1013.4mb 70f 70f
4:06pm 20 25 mph 1013.4mb 70f 70f
4:00pm 18 23 mph 1013.6mb 70f 70f
3:54pm 16 24 mph 1013.6mb 69f 70f
3:48pm 20 23 mph 1013.6mb 69f 70f
3:42pm 20 24 mph 1013.7mb 69f 70f
3:36pm 22 25 mph 1013.8mb 69f 70f
3:30pm 22 25 mph 1013.7mb 69f 70f
3:24pm 21 24 mph 1013.7mb 69f 70f
3:18pm 22 25 mph 1013.5mb 69f 69f
3:12pm 22 25 mph 1013.7mb 69f 69f
3:06pm 21 23 mph 1013.7mb 70f 70f
3:00pm 18 23 mph 1013.8mb 70f 70f
2:54pm 17 21 mph 1013.8mb 70f 70f
2:48pm 17 21 mph 1014mb 70f 70f
2:42pm 16 20 mph 1014mb 70f 70f
2:36pm 16 23 mph 1014.1mb 70f 70f
2:30pm 17 22 mph 1014.2mb 69f 70f
2:24pm 16 22 mph 1014.2mb 69f 70f
2:18pm 15 20 mph 1014.2mb 69f 70f
2:12pm 16 20 mph 1014.3mb 69f 70f
2:06pm 17 23 mph 1014.4mb 69f 70f
2:00pm 21 23 mph 1014.2mb 69f 69f
1:54pm 18 21 mph 1014.4mb 69f 70f
1:48pm 18 23 mph 1014.4mb 69f 70f
1:42pm 20 22 mph 1014.4mb 69f 70f
1:36pm 18 20 mph 1014.7mb 69f 70f
1:30pm 17 20 mph 1014.7mb 69f 69f
1:24pm 18 22 mph 1014.7mb 69f 69f
1:18pm 17 21 mph 1014.9mb 69f 69f
1:12pm 18 23 mph 1014.9mb 69f 68f
1:06pm 20 23 mph 1014.7mb 69f 68f
1:00pm 17 21 mph 1014.8mb 69f 69f
12:54pm 18 22 mph 1015mb 69f 69f
12:48pm 16 22 mph 1015mb 69f 68f
12:42pm 18 23 mph 1015mb 69f 68f
12:36pm 17 22 mph 1014.9mb 69f 68f